Flag for U.S.A. Weather past 2 weeks in Evansville, Indiana, U.S.A.

Now
61 °F

Light rain. Mostly cloudy.


Feels Like: 61 °F
Forecast: 61 / 68 °F
Wind: 3 mph from North

Location: Evansville Regional Airport

Current Time: Apr 19, 2015 at 5:40:12 AM

Latest Report: Apr 19, 2015 at 4:54 AM


Visibility: 8 mi

Pressure: 29.74 "Hg

Humidity: 90%

Dew point: 58 °F

Location of EvansvilleLocation

Historic Weather in Evansville — Graph

°F

Evansville temperature yesterday

Maximum temperature yesterday: 80 °F (at 2:54 PM)
Minimum temperature yesterday: 55 °F (at 5:54 AM)
Average temperature yesterday: 68 °F

Past Weeks' High & Low Weather Summary

 TemperatureHumidityPressure
High81 °F (Apr 9, 4:54 PM)97% (Apr 16, 7:54 AM)30.43 "Hg (Apr 16, 7:54 AM)
Low35 °F (Apr 5, 6:54 AM)24% (Apr 5, 2:54 PM)29.71 "Hg (Apr 9, 9:54 PM)
Average62 °F65%30.06 "Hg
* Reported Apr 4 3:54 AM — Apr 19 3:54 AM, Evansville, Weather by CustomWeather, © 2015

Note: Actual official high and low records may vary slightly from our data, if they occured in-between our weather recording intervals... More about our weather records

Advertising

Evansville weather history for previous 24 hours

 ConditionsComfort  
Time TempWeatherWind HumidityBarometerVisibility
3:54 AM
Sun, Apr 19
62 °FLight rain. Overcast.3 mph83%29.75 "Hg7 mi
2:54 AM65 °FLight rain. Overcast.3 mph70%29.78 "Hg8 mi
1:54 AM67 °FOvercast.No wind57%29.80 "Hg10 mi
12:54 AM68 °FPassing clouds.5 mph51%29.82 "Hg10 mi
11:54 PM
Sat, Apr 18
68 °FPassing clouds.6 mph51%29.84 "Hg10 mi
10:54 PM68 °FPassing clouds.5 mph55%29.87 "Hg10 mi
9:54 PM68 °FPassing clouds.3 mph57%29.89 "Hg10 mi
8:54 PM69 °FClear.7 mph59%29.88 "Hg10 mi
7:54 PM71 °FClear.3 mph57%29.88 "Hg10 mi
6:54 PM75 °FSunny.5 mph50%29.87 "Hg10 mi
5:54 PM78 °FSunny.7 mph40%29.88 "Hg10 mi
4:54 PM80 °FSunny.6 mph36%29.88 "Hg10 mi
3:54 PM80 °FSunny.9 mph38%29.90 "Hg10 mi
2:54 PM80 °FPassing clouds.10 mph39%29.93 "Hg10 mi
1:54 PM78 °FPassing clouds.3 mph43%29.96 "Hg10 mi
12:54 PM77 °FPassing clouds.3 mph45%29.99 "Hg10 mi
11:54 AM76 °FPassing clouds.5 mph54%30.01 "Hg10 mi
10:54 AM73 °FSunny.5 mph64%30.01 "Hg7 mi
9:54 AM70 °FSunny.6 mph71%30.01 "Hg7 mi
8:54 AM64 °FSunny.5 mph78%30.01 "Hg4 mi
7:54 AM60 °FFog.No wind86%30.03 "Hg3 mi
6:54 AM57 °FFog.No wind90%30.02 "Hg3 mi
5:54 AM55 °FFog.3 mph93%30.03 "Hg3 mi
Weather by CustomWeather, © 2015

See weather overviewHow to use our weather pages